Regional Weather Roundup
Issued by NWS

Home | Current Version | Previous Version | Text Only | Print | Product List | Glossary On
Versions: 1 2 3 4 5 6 7 8 9 10 11 12 13 14 15 16 17 18 19 20 21 22 23 24 25 26 27 28 29 30 31 32 33 34 35 36 37 38 39 40 41 42 43 44 45 46 47 48 49 50
000
ASUS42 KTBW 210410
RWRFL
FLORIDA REGIONAL WEATHER ROUNDUP
NATIONAL WEATHER SERVICE TAMPA BAY RUSKIN FL
1200 AM EDT THU AUG 21 2014

NOTE: "FAIR" INDICATES FEW OR NO CLOUDS BELOW 12,000 FEET WITH NO
SIGNIFICANT WEATHER AND/OR OBSTRUCTIONS TO VISIBILITY.


FLZ001>010-012>015-112-114-115-210500-
PANHANDLE FLORIDA

CITY           SKY/WX    TMP DP  RH WIND       PRES   REMARKS
PENSACOLA      PTCLDY    81  75  82 W5        30.10S
PENSACOLA NAS  PTCLDY    78  76  93 CALM      30.10S
MILTON NAS     PTCLDY    78  73  84 W5        30.11S
CRESTVIEW      CLEAR     75  73  93 CALM      30.13R
DUKE FIELD     PTCLDY    79  78  97 CALM      30.11R
MARY ESTHER    CLEAR     83  73  71 W5        30.09S
TRI COUNTY     FAIR      74  73  97 CALM      30.11S
PANAMA CITY    FAIR      77  74  90 CALM      30.10S
TYNDALL AFB    PTCLDY    79  77  93 CALM      30.11S
APALACHICOLA   CLEAR     80  75  84 CALM      30.10S

STATION/POSITION SKY/WX   TEMP    WIND        PRES    WAVE   SWELL
                          AIR SEA DIR/SP/G            HT/PER HT/PER
                          (F)     (DEG/KT/KT) (MB)    (FT/S) (FT/S)
30.1N   87.6W              86 86  230/  8/ 10 1019.4R   1/ 3
29.2N   88.2W              86 88  210/  6/  8 1019.9R
28.8N   86.0W              86 87  230/  2/  2 1019.9R   1/ 5   2/ 5
PANAMA CITY BEAC           84 83  280/  6/  7 1019.3S
CAPE SAN BLAS    NOT AVBL
TOWER C                    84     290/  8/  8 1019.4S
28.5N   84.5W              85 86  300/  4/  6 1019.6R   1/ 8

$$
FLZ011-016>038-118-127-128-134-139-239-210500-
NORTH FLORIDA

CITY           SKY/WX    TMP DP  RH WIND       PRES   REMARKS
MARIANNA       PTCLDY    77  75  93 SW3       30.10R
TALLAHASSEE    PTCLDY    80  73  79 CALM      30.10S
PERRY          CLEAR     79  73  83 CALM      30.10S
CROSS CITY       N/A     79  75  87 S3        30.10S
GAINESVILLE    CLEAR     79  75  87 W5        30.10S
MAYPORT NAS    PTCLDY    79  73  82 S7        30.08R
JACKSONVILLE   PTCLDY    80  75  84 SW6       30.07S
JAX NAS        PTCLDY    86  73  65 S6        30.09R
JAX CRAIG      PTCLDY    81  72  74 SW6       30.08R
JAX CECIL      CLEAR     77  75  94 CALM      30.10R
FERNANDINA BEA FAIR      82  73  74 SW5       30.06S
ST AUGUSTINE   PTCLDY    77  72  84 S3        30.10R

STATION/POSITION SKY/WX   TEMP    WIND        PRES    WAVE   SWELL
                          AIR SEA DIR/SP/G            HT/PER HT/PER
                          (F)     (DEG/KT/KT) (MB)    (FT/S) (FT/S)
SHELL POINT                83     290/  4/  6   N/A
KEATON BEACH               86     300/  6/  9 1019.3R
CEDAR KEY                  85     300/  6/  7 1019.9R
FERNANDINA                 83 85  210/  8/ 10 1017.8F
30.7N   81.3W                 83                N/A     2/ 3
MAYPORT                    83 84  220/  7/  9   N/A
31.4N   80.9W              85 85  220/ 14/ 16 1017.8R   2/ 3   2/ 8
ST AUGUSTINE               79     230/  2/  2 1019.5R

$$
FLZ040-043>046-052-053-057-058-063-144-210500-
INTERIOR CENTRAL FLORIDA

CITY           SKY/WX    TMP DP  RH WIND       PRES   REMARKS
OCALA          CLEAR     79  73  83 CALM      30.11S
LEESBURG       CLEAR     82  76  81 NW6       30.11S
SANFORD        PTCLDY    84  77  79 S5        30.10S
ORLANDO EXEC   PTCLDY    83  73  72 S7        30.11R
ORLANDO INTL   MOCLDY    80  72  76 SW5       30.12R
WINTER HAVEN   PTCLDY    82  73  74 NE3       30.13R
LAKELAND       PTCLDY    79  72  78 E5        30.12R
BARTOW         FAIR      82  73  74 NE3       30.12S
OKEECHOBEE       N/A     79  75  89 MISG      30.12R

$$
FLZ041-047-054-059-064-141-147-210500-
EAST CENTRAL FLORIDA

CITY           SKY/WX    TMP DP  RH WIND       PRES   REMARKS
DAYTONA BEACH  PTCLDY    81  76  84 SW5       30.10S
DELAND         CLEAR     82  75  78 CALM      30.12S
JFK SPACE CTR  PTCLDY    82 N/A N/A SW7       30.11R
CAPE CANAVERAL PTCLDY    82  77  86 SW5       30.10R
PATRICK AFB    PTCLDY    83  78  84 SW5       30.11R
MELBOURNE      PTCLDY    81  78  91 CALM      30.10S
VERO BEACH     PTCLDY    79  76  90 SW3       30.10S
FT PIERCE      CLEAR     79  75  87 CALM      30.11R
STUART         CLEAR     81  75  83 CALM      30.12R

STATION/POSITION SKY/WX   TEMP    WIND        PRES    WAVE   SWELL
                          AIR SEA DIR/SP/G            HT/PER HT/PER
                          (F)     (DEG/KT/KT) (MB)    (FT/S) (FT/S)
28.5N   80.2W              85 86  170/ 10/ 12 1019.4R
28.9N   78.5W              84 85  200/ 10/ 10 1019.5F   2/ 8   2/ 8
TRIDENT PIER               84 84  200/  7/  9 1019.1R
28.4N   80.5W                 81                N/A     1/ 8
27.6N   80.2W                 83                N/A     1/10

$$
FLZ050-056-061-142-242-148-248-149-249-151-251-155-255-
160-260-210500-
WEST CENTRAL FLORIDA

CITY           SKY/WX    TMP DP  RH WIND       PRES   REMARKS
CRYSTAL RIVER  FAIR      77  73  88 CALM      30.10F
INVERNESS      FAIR      77  70  78 CALM      30.11S
BROOKSVILLE    CLEAR     77  74  90 CALM      30.11S
ZEPHYRHILLS    FAIR      75  73  94 CALM      30.12S
CLEARWATER     PTCLDY    83  76  79 NW7       30.10S
TAMPA INTL     PTCLDY    82  74  76 NW5       30.11S
TAMPA EXEC     PTCLDY    77  73  88 CALM      30.11S
MACDILL AFB    PTCLDY    82  78  87 N6        30.10S
ST PETERSBURG  PTCLDY    85  76  74 N7        30.09R
SARASOTA       MOCLDY    85  75  72 CALM      30.09R
VENICE           N/A    N/A N/A N/A MISG        N/A

STATION/POSITION SKY/WX   TEMP    WIND        PRES    WAVE   SWELL
                          AIR SEA DIR/SP/G            HT/PER HT/PER
                          (F)     (DEG/KT/KT) (MB)    (FT/S) (FT/S)
CEDAR KEY                  85     300/  6/  7 1019.9R
28.5N   84.5W              85 86  300/  4/  6 1019.6R   1/ 8
27.3N   84.3W                 88                N/A     1/ 7
CLEARWATER BEACH           86 90  330/  8/ 12 1019.1S
MIDDLE TAMPA BAY           85     350/  8/ 11 1019.4F
VENICE                     84 90   20/  6/  7 1018.8R

$$
FLZ066-069-070-075>078-162-262-165-265-210500-
SOUTHWEST FLORIDA AND KEYS

CITY           SKY/WX    TMP DP  RH WIND       PRES   REMARKS
PUNTA GORDA    CLOUDY    83  77  82 N5        30.12S
FT MYERS       MOCLDY    80  74  81 CALM      30.09S
SOUTHWEST INTL PTCLDY    78  74  87 CALM      30.11R
NAPLES         CLEAR     78  76  93 E3        30.10R
MARCO ISLAND   CLEAR     77  73  88 NE3       30.11R
MARATHON       CLEAR     86  76  71 E6        30.09R HX  96
KEY WEST NAS   CLEAR     83  77  82 NE3       30.09R THUNDER
KEY WEST INTL  CLEAR     84  75  74 NE3       30.10R

STATION/POSITION SKY/WX   TEMP    WIND        PRES    WAVE   SWELL
                          AIR SEA DIR/SP/G            HT/PER HT/PER
                          (F)     (DEG/KT/KT) (MB)    (FT/S) (FT/S)
VENICE                     84 90   20/  6/  7 1018.8R
NAPLES                     80      80/  5/  6 1019.7S
DRY TORTUGAS               86     120/  9/  9 1018.8R
NW FL BAY                  86      90/  5/  6 1018.8R
SAND KEY                   85      80/  9/ 10 1019.0R
SOMBRERO KEY               86      80/  8/  9 1019.6R
LONG KEY                   86 91  140/  7/  8 1019.7R
MOLASSES REEF              85 88  120/  8/  9 1019.1R

$$
FLZ067-068-071>074-168-172>174-210500-
SOUTHEAST FLORIDA

CITY           SKY/WX    TMP DP  RH WIND       PRES   REMARKS
W PALM BEACH   PTCLDY    84  75  74 SE5       30.10R
FT LAUDER-EXEC CLEAR     85  77  77 CALM      30.10R HX  95
FT LAUDERDALE  MOCLDY    86  75  69 S3        30.09S HX  95
POMPANO BEACH    N/A     86  76  71 SE6       30.10R HX  96
PEMBROKE PINES CLEAR     84  76  76 SE3       30.11R
OPA LOCKA      CLEAR     84  73  69 E3        30.10S
MIAMI          PTCLDY    84  75  74 SE6       30.10S
WEST KENDALL   CLEAR     82  76  81 CALM      30.10R
HOMESTEAD      CLEAR     82  77  85 CALM      30.10R

STATION/POSITION SKY/WX   TEMP    WIND        PRES    WAVE   SWELL
                          AIR SEA DIR/SP/G            HT/PER HT/PER
                          (F)     (DEG/KT/KT) (MB)    (FT/S) (FT/S)
PORT EVERGLADES            85     130/  7/  9 1019.0
VIRGINIA KEY               85 90  130/  7/  9   N/A
LAKE WORTH                 85 87  140/  7/  9 1019.2S
FOWEY ROCKS                85 88  110/  8/  9 1019.5S
SETTLEMENT POINT           83     130/  5/  6 1020.4R

$$




USA.gov is the U.S. government's official web portal to all federal, state and local government web resources and services.